Wind_Speed
19 19 18 22 24 19 17 16 13 12 10 9 10 10 11 11 10 10 9 10 9 8 9 10 9 9 9 9 9 11 14 15 14 15 14 15 16 15 16 15 14 12 12
19 17 18 18 18 17 13 13 12 12 11 10 10 11 12 13 11 11 11 10 9 8 10 8 8 8 7 9 8 9 11 10 13 12 12 13 14 14 14 13 12 11 11
18 15 17 17 15 14 12 12 12 12 11 12 11 16 15 14 13 14 13 10 7 7 8 10 8 7 6 8 7 9 8 9 11 12 11 12 11 13 13 12 11 9 9
19 17 16 16 14 15 14 14 14 14 16 14 14 16 15 12 13 14 14 10 9 9 8 9 8 6 6 7 6 6 7 6 9 13 12 10 10 12 13 13 13 12 10
19 17 15 15 14 15 15 15 16 16 17 15 17 15 14 14 14 14 12 13 14 13 12 10 8 6 5 6 6 5 6 6 1 7 8 8 8 9 10 10 11 10 10
15 14 14 13 15 16 16 18 17 17 16 15 14 12 13 13 14 14 12 12 12 12 11 10 9 7 4 2 5 4 6 7 5 5 5 6 6 7 8 6 8 7 7
15 13 14 13 14 15 15 14 14 15 14 13 12 11 12 12 11 9 9 10 10 9 9 8 9 9 5 2 2 2 4 6 7 11 7 5 4 6 7 6 7 7 5
14 13 13 13 13 14 15 16 16 15 14 12 12 12 10 9 8 7 8 8 8 8 7 8 7 7 5 4 2 3 4 1 1 9 7 1 4 5 7 6 7 7 5
9 9 10 12 13 13 14 14 14 12 10 9 9 8 8 7 5 4 6 5 6 5 5 6 6 6 4 3 2 2 4 4 5 5 4 5 7 5 5 6 6 6 5
10 11 12 13 12 12 11 9 7 7 6 7 7 7 7 9 9 7 5 5 4 5 4 5 7 5 7 7 5 5 6 4 5 5 5 11 6 10 4 4 6 5 5
10 12 12 11 10 8 6 7 7 7 6 6 7 7 7 6 6 6 6 6 6 6 6 6 10 10 8 9 9 8 8 11 10 9 7 7 13 14 8 3 5 3 2
10 12 14 14 13 13 12 11 11 10 9 7 8 8 5 4 5 5 5 7 8 7 6 8 9 10 10 9 9 9 12 12 11 10 9 10 11 11 13 10 7 5 1
17 16 14 13 13 12 12 10 9 8 9 8 8 6 4 4 4 5 6 8 9 11 11 11 11 10 12 10 9 10 10 12 12 8 11 11 11 11 14 14 11 10 4
15 14 12 11 10 10 11 11 10 8 8 8 6 6 6 6 5 6 7 8 8 8 10 10 11 10 11 11 13 11 9 11 14 15 12 12 12 13 14 13 14 14 10
13 12 10 9 8 9 9 10 9 8 7 7 6 5 6 6 6 6 7 7 8 9 9 10 11 12 12 11 11 12 12 12 13 16 18 16 13 14 16 16 17 16 12
11 10 11 9 8 8 7 7 7 6 6 7 7 7 6 7 7 6 7 7 8 9 10 10 11 11 10 12 10 10 11 12 14 15 19 19 18 16 16 18 19 19 16
9 8 8 7 6 5 5 4 5 6 7 8 8 7 7 6 7 6 8 9 9 10 11 11 12 13 15 14 14 15 14 13 13 14 15 20 23 21 19 18 20 21 19
8 8 7 7 6 4 2 1 3 5 6 8 8 7 7 6 7 7 6 9 11 12 14 14 14 15 16 17 18 17 17 17 15 15 16 17 21 25 24 22 20 24 24
8 7 7 7 6 5 2 2 3 3 3 5 6 5 7 6 6 8 8 8 10 12 13 15 15 16 17 17 19 20 20 19 17 17 17 16 19 21 27 27 24 24 27
8 9 9 7 6 4 3 3 3 1 2 3 4 4 6 6 7 8 10 11 13 14 14 16 18 18 19 19 21 23 22 21 20 18 18 17 19 19 22 28 29 27 26
6 6 6 5 4 4 3 1 2 3 3 4 4 4 5 5 6 7 8 10 12 14 17 18 20 21 20 20 21 23 24 24 23 22 20 20 18 20 22 24 28 31 33
6 5 3 3 2 3 4 4 5 5 6 7 7 8 10 10 11 12 14 13 14 15 16 18 20 23 25 24 22 23 25 26 25 23 22 21 21 19 21 24 28 29 31
6 6 5 5 5 5 7 8 9 9 10 10 11 12 14 15 16 16 17 19 20 21 21 21 21 23 25 26 25 23 24 26 28 27 24 22 22 21 21 20 25 29 31
7 7 8 7 7 8 11 13 14 13 13 14 15 15 17 18 20 22 22 22 22 23 24 23 24 24 26 28 26 24 24 24 27 30 30 25 23 24 24 24 25 26 31
12 10 12 12 12 14 15 17 19 19 18 16 19 20 20 21 21 22 23 24 24 24 25 24 24 27 30 31 29 27 26 27 25 25 28 30 29 27 28 28 29 30 28
16 18 17 17 18 19 20 22 23 24 20 20 22 23 22 23 24 24 24 25 26 26 27 27 27 28 31 31 30 30 30 30 30 26 24 26 30 34 36 33 31 32 34
Wind_Direction
100 107 101 103 113 120 118 124 127 118 108 101 92 76 72 73 63 59 69 76 74 58 52 43 41 48 83 89 89 94 82 75 80 82 85 89 89 89 89 90 92 102 115
106 114 110 108 106 104 106 111 101 90 86 80 71 76 67 61 65 61 58 55 55 52 45 44 43 51 75 88 88 90 85 85 79 80 86 83 83 79 78 86 93 93 99
106 103 96 99 101 100 103 91 83 81 74 71 72 67 63 64 60 56 53 53 56 56 45 41 45 56 94 92 92 93 85 90 79 65 63 66 68 68 64 68 80 85 88
104 99 95 96 95 97 93 89 79 71 72 67 62 68 68 62 61 60 55 53 59 51 41 32 42 56 86 94 80 83 78 75 69 45 49 48 59 65 66 61 61 72 81
101 104 102 96 94 89 85 82 78 72 70 73 71 68 66 64 61 60 56 49 46 43 33 33 30 46 63 89 78 69 64 61 267 47 53 63 61 61 62 68 61 57 76
99 100 100 97 93 86 80 77 76 76 77 76 75 73 67 65 61 59 55 52 51 52 49 37 35 36 35 32 73 55 60 63 118 249 28 49 50 51 48 54 67 52 78
107 106 104 96 90 89 88 89 89 87 89 87 83 74 65 57 55 58 60 58 54 44 33 23 32 40 22 351 340 339 37 59 115 178 293 331 36 41 41 23 52 61 67
112 104 94 91 95 100 99 97 93 91 84 79 72 65 63 59 56 54 49 41 40 32 19 8 7 22 22 4 348 299 305 352 128 185 275 141 352 11 36 26 36 48 56
117 116 109 102 98 94 89 84 82 72 71 70 67 64 56 47 30 69 44 27 19 16 6 336 341 356 344 326 323 305 288 278 263 260 326 353 289 347 7 15 25 37 62
122 117 114 115 108 98 87 80 70 71 70 68 71 63 56 59 53 41 49 36 344 317 313 309 310 315 308 303 286 267 268 264 274 277 218 235 261 285 285 345 346 30 28
126 117 113 117 112 105 96 90 89 87 74 65 75 74 66 49 42 19 354 339 332 329 322 315 294 288 278 286 287 284 272 268 266 271 253 233 224 244 238 237 308 320 21
136 124 108 108 107 103 96 96 99 97 90 73 69 69 62 40 10 3 350 339 340 320 315 307 292 288 277 277 284 289 283 286 280 259 250 243 237 235 244 246 248 263 241
120 126 116 104 100 102 102 97 89 86 80 66 54 51 44 52 27 10 353 331 327 317 314 316 315 298 302 301 287 273 272 278 281 277 243 253 249 243 252 251 241 235 226
125 124 115 106 103 94 92 89 78 65 60 58 44 21 11 22 22 13 355 346 340 335 328 326 321 319 316 315 304 299 280 268 277 281 267 259 259 251 248 254 240 234 225
129 124 120 112 107 101 92 80 70 51 38 35 27 16 358 2 9 19 15 357 358 2 1 359 353 348 339 330 318 308 300 293 268 266 270 268 261 252 245 238 240 238 229
119 118 114 110 105 98 83 70 60 37 27 34 28 23 19 7 9 11 14 8 5 3 359 358 356 356 353 348 341 323 309 296 283 265 260 264 265 258 249 244 237 234 233
121 121 113 111 100 97 88 60 42 29 28 33 28 18 14 6 354 351 359 1 358 1 358 357 355 352 355 352 344 335 323 310 301 286 264 258 258 256 250 248 244 237 234
147 146 139 132 129 121 121 61 46 43 24 27 27 22 14 354 357 350 354 344 354 356 356 349 349 348 349 350 347 348 346 330 311 297 291 274 267 256 249 244 245 244 234
157 160 151 142 144 158 139 81 73 59 36 29 30 9 12 9 2 356 342 341 343 342 342 336 339 339 340 339 338 335 339 343 335 320 304 288 275 263 253 248 242 242 244
152 149 151 150 150 160 164 129 105 59 18 15 29 6 2 4 355 341 337 334 332 332 327 325 328 330 331 331 329 329 332 334 334 336 324 311 289 277 262 253 252 245 242
152 150 142 148 153 161 159 146 354 330 313 317 336 336 332 332 325 323 323 324 324 324 326 324 325 323 324 323 321 321 324 327 329 330 330 329 309 286 269 260 253 252 248
154 167 165 165 170 232 276 303 315 306 304 309 312 313 313 317 316 312 316 317 309 311 311 318 321 322 321 321 316 317 317 321 323 323 322 324 324 308 287 265 258 257 252
190 200 211 221 246 263 289 300 297 297 300 299 305 310 312 313 313 313 314 313 316 316 313 313 317 318 318 317 314 311 315 316 317 317 316 318 314 315 304 288 270 261 258
232 231 241 247 262 276 283 283 286 288 289 295 298 303 308 311 312 312 314 315 312 313 314 312 311 315 315 315 312 306 308 310 311 312 314 314 310 305 303 293 280 270 259
261 250 259 266 264 268 271 279 284 286 289 298 297 295 299 303 305 306 307 310 310 308 308 311 313 316 315 315 312 309 307 309 307 305 304 310 311 304 296 291 284 275 268
273 271 269 272 278 279 280 283 284 287 292 294 293 293 297 302 305 308 308 311 312 312 313 311 312 314 315 315 316 315 314 310 310 310 306 297 295 301 299 290 280 273 269
Height
5885 5887 5888 5889 5888 5889 5889 5891 5892 5893 5893 5895 5894 5895 5895 5895 5896 5896 5896 5895 5896 5897 5897 5897 5895 5895 5895 5896 5897 5898 5898 5899 5898 5898 5898 5897 5897 5897 5896 5895 5894 5894 5893
5886 5889 5889 5890 5890 5889 5893 5892 5893 5894 5896 5897 5897 5897 5899 5897 5898 5898 5897 5897 5899 5900 5900 5899 5897 5897 5899 5899 5899 5900 5901 5900 5900 5900 5900 5900 5899 5899 5898 5897 5897 5897 5896
5888 5891 5891 5892 5893 5893 5895 5895 5896 5897 5899 5898 5899 5898 5899 5899 5900 5899 5899 5900 5900 5901 5901 5900 5899 5900 5901 5901 5902 5902 5902 5902 5902 5901 5902 5901 5901 5900 5901 5900 5898 5898 5898
5890 5892 5894 5895 5896 5897 5898 5899 5899 5899 5898 5900 5901 5900 5900 5901 5901 5901 5900 5902 5900 5901 5900 5900 5901 5902 5902 5902 5903 5903 5904 5903 5903 5903 5903 5903 5903 5902 5902 5901 5901 5899 5899
5892 5894 5895 5896 5897 5898 5899 5900 5899 5899 5899 5902 5901 5902 5901 5902 5902 5901 5902 5902 5900 5901 5901 5900 5902 5903 5903 5903 5903 5904 5905 5904 5904 5905 5905 5905 5904 5903 5903 5903 5902 5902 5900
5895 5895 5896 5898 5898 5899 5901 5900 5900 5901 5901 5902 5903 5903 5903 5904 5902 5902 5904 5903 5902 5903 5902 5902 5902 5904 5904 5904 5904 5904 5905 5906 5907 5906 5907 5906 5905 5905 5904 5904 5902 5903 5902
5896 5898 5898 5899 5900 5902 5902 5903 5902 5902 5904 5904 5905 5904 5904 5904 5904 5905 5905 5904 5903 5903 5903 5903 5903 5905 5904 5905 5905 5905 5906 5905 5906 5907 5906 5906 5906 5905 5904 5905 5902 5902 5902
5898 5900 5900 5901 5903 5905 5904 5903 5904 5905 5906 5906 5905 5906 5906 5906 5906 5906 5906 5905 5904 5905 5905 5904 5904 5905 5905 5905 5905 5904 5905 5906 5906 5906 5905 5906 5906 5905 5904 5904 5903 5902 5902
5900 5901 5902 5904 5905 5906 5905 5905 5906 5907 5908 5908 5908 5908 5908 5907 5907 5907 5905 5905 5905 5906 5906 5904 5904 5905 5904 5904 5905 5905 5904 5904 5904 5905 5904 5903 5906 5905 5904 5904 5904 5903 5902
5902 5903 5904 5906 5908 5908 5907 5908 5909 5909 5909 5909 5909 5909 5909 5908 5907 5907 5906 5906 5906 5906 5905 5904 5904 5904 5904 5904 5904 5903 5903 5903 5902 5903 5904 5904 5903 5904 5905 5904 5904 5903 5902
5904 5905 5906 5908 5909 5910 5910 5910 5910 5910 5910 5910 5910 5909 5909 5908 5907 5907 5906 5905 5906 5905 5904 5904 5903 5903 5903 5902 5902 5902 5902 5901 5901 5901 5901 5902 5902 5903 5904 5903 5903 5903 5902
5906 5907 5909 5909 5910 5911 5912 5912 5912 5912 5912 5911 5910 5910 5910 5909 5908 5907 5907 5906 5905 5904 5903 5902 5902 5901 5901 5901 5900 5901 5900 5899 5898 5899 5900 5900 5900 5901 5902 5902 5902 5903 5902
5908 5910 5911 5911 5912 5912 5912 5913 5913 5913 5913 5912 5911 5911 5910 5910 5910 5908 5907 5906 5905 5904 5903 5901 5900 5900 5899 5899 5899 5899 5898 5897 5896 5896 5898 5898 5899 5899 5899 5900 5900 5901 5901
5910 5911 5912 5912 5913 5913 5914 5914 5915 5914 5914 5913 5912 5912 5911 5911 5910 5909 5907 5906 5905 5904 5902 5900 5899 5898 5897 5896 5896 5896 5896 5895 5894 5893 5894 5895 5895 5896 5897 5898 5898 5899 5898
5911 5912 5913 5913 5914 5915 5916 5916 5916 5915 5914 5913 5913 5913 5911 5911 5910 5909 5907 5906 5905 5903 5902 5900 5898 5897 5896 5895 5894 5893 5892 5892 5892 5891 5891 5892 5892 5893 5894 5895 5895 5896 5896
5912 5913 5914 5915 5915 5916 5917 5917 5917 5916 5915 5914 5914 5913 5911 5911 5910 5909 5908 5907 5905 5904 5903 5901 5899 5897 5896 5893 5892 5891 5890 5889 5888 5887 5887 5887 5888 5889 5889 5890 5890 5891 5892
5914 5915 5915 5916 5916 5917 5918 5918 5917 5917 5916 5915 5914 5912 5911 5910 5910 5909 5909 5907 5906 5904 5903 5901 5899 5897 5894 5892 5890 5889 5888 5886 5885 5884 5884 5883 5883 5883 5884 5884 5884 5884 5887
5915 5916 5916 5916 5917 5918 5919 5919 5917 5917 5916 5915 5914 5913 5911 5910 5909 5908 5907 5907 5905 5903 5902 5900 5897 5895 5893 5891 5889 5887 5885 5884 5882 5881 5879 5879 5879 5878 5878 5878 5879 5880 5881
5915 5916 5916 5917 5917 5918 5918 5918 5918 5918 5917 5916 5915 5913 5912 5911 5909 5907 5907 5905 5903 5902 5900 5898 5896 5894 5892 5889 5886 5884 5883 5880 5878 5877 5876 5875 5875 5874 5873 5874 5875 5876 5876
5915 5916 5916 5917 5917 5917 5917 5917 5917 5916 5915 5914 5914 5913 5911 5910 5908 5906 5904 5902 5900 5899 5898 5896 5893 5892 5890 5888 5884 5881 5878 5877 5875 5873 5871 5870 5869 5870 5870 5870 5871 5872 5873
5914 5915 5916 5916 5916 5917 5917 5916 5915 5914 5914 5913 5912 5911 5910 5908 5907 5905 5903 5901 5899 5897 5895 5892 5890 5889 5888 5886 5882 5879 5876 5873 5871 5869 5867 5865 5864 5863 5863 5864 5864 5866 5868
5912 5913 5915 5915 5915 5916 5916 5915 5914 5913 5912 5911 5910 5908 5906 5905 5904 5902 5900 5899 5897 5896 5893 5890 5887 5885 5883 5882 5880 5876 5872 5871 5868 5866 5864 5861 5859 5858 5857 5857 5857 5857 5858
5912 5913 5914 5915 5914 5914 5913 5913 5912 5911 5910 5909 5908 5906 5903 5902 5901 5899 5897 5894 5892 5890 5888 5887 5885 5882 5879 5878 5875 5874 5870 5865 5862 5862 5861 5859 5856 5853 5851 5851 5849 5849 5850
5912 5912 5913 5912 5912 5911 5911 5912 5911 5909 5907 5906 5905 5902 5901 5899 5897 5894 5892 5890 5888 5886 5883 5881 5880 5877 5874 5871 5869 5868 5867 5864 5859 5855 5854 5854 5852 5849 5847 5845 5843 5842 5843
5911 5910 5910 5909 5909 5909 5909 5909 5908 5906 5904 5901 5900 5899 5897 5896 5893 5891 5888 5885 5882 5880 5878 5875 5873 5871 5868 5867 5864 5863 5861 5860 5858 5854 5848 5845 5844 5844 5842 5839 5837 5835 5836
5908 5907 5906 5906 5907 5907 5906 5905 5904 5902 5898 5897 5896 5896 5892 5890 5887 5884 5883 5880 5877 5874 5871 5870 5868 5866 5865 5862 5860 5857 5855 5852 5850 5849 5846 5843 5837 5832 5831 5832 5831 5829 5827